[[{"header":{"parameterUnit":"m.s-1","parameterCategory":1,"la1":30.2991,"la2":30.254,"lo1":-89.0895,"lo2":-89.0444,"dy":0.0017,"dx":0.0017,"nx":28,"ny":28,"refTime":"2026-01-11T03:00:00:Z","depth":0,"parameterNumber":2,"parameterNumberName":"U-component_of_WINDS"},"data":[0,0,0,0,0,0,0,0,0,0,0,0,0,0,0,0,0,0,0,0,0,0,0,0,0,0,0,0,0,0,0,0,0,0,0,0,0,0,0,0,0,0,0,0,0,0,0,0,0,0,0,0,0,0,0,0,0,0,0.1476,0.1476,0,0.1459,0.1459,0.1458,0.1467,0.1468,0.1468,0.1468,0.1449,0.1448,0.1447,0,0,0,0,0,0,0,0,0,0,0,0,0,0.1515,0.1514,0.1476,0.1476,0.1475,0.1459,0.1459,0.1458,0.1467,0.1468,0.1468,0.1469,0.1449,0.1448,0.1447,0,0,0,0,0,0,0,0,0,0,0,0,0,0.1498,0.1514,0.1476,0.1478,0.1478,0.1459,0.1459,0.1458,0.1467,0.1468,0.1468,0.1469,0.1449,0.1448,0.1447,0.1424,0,0,0.1442,0.1442,0,0,0,0,0,0,0,0,0.1499,0.1496,0.1478,0.1478,0.1478,0.1466,0.1465,0.1447,0.1467,0.1471,0.1468,0.1469,0.1454,0.1452,0.1447,0.1423,0.1422,0.1442,0.1441,0.1441,0.144,0,0,0,0,0,0,0,0.15,0.1497,0.1469,0.1477,0.1477,0.1479,0.1478,0.1462,0.1459,0.1471,0.1471,0.1469,0.1454,0.1448,0.1447,0.1422,0.1442,0.1441,0.144,0.1439,0.1379,0.1379,0,0,0,0,0,0,0.1501,0.1498,0.147,0.1468,0.149,0.1478,0.1476,0.1469,0.1459,0.1458,0.1469,0.147,0.1451,0.1448,0.1446,0.1419,0.1441,0.1439,0.1438,0.138,0.1379,0.1378,0,0,0,0,0,0,0.1502,0.1499,0.147,0.1483,0.148,0.1477,0.1468,0.1468,0.1463,0.1457,0.1457,0.1464,0.1451,0.1448,0.143,0.1419,0.1439,0.1437,0.1381,0.138,0.1379,0.1365,0,0,0,0,0,0,0.1503,0.1499,0.149,0.1483,0.1479,0.1454,0.1468,0.1467,0.1461,0.1462,0.1453,0.1452,0.1451,0.1432,0.1428,0.1417,0.1436,0.1382,0.138,0.1379,0.1366,0.1364,0.1361,0,0,0,0,0,0.1504,0.1486,0.149,0.1486,0.1469,0.1454,0.1451,0.1452,0.146,0.1451,0.1448,0.1452,0.1421,0.143,0.1426,0.1414,0.1383,0.1381,0.1379,0.1368,0.1364,0.1361,0,0,0,0,0,0,0.1491,0.1485,0.1489,0.1468,0.1462,0.1455,0.1444,0.1448,0.1438,0.144,0.144,0.1438,0.1419,0.1415,0.1425,0.1392,0.1403,0.14,0.1395,0.1392,0.1389,0.139,0.1435,0,0,0,0,0,0.1486,0.1475,0.147,0.1452,0.1449,0.1447,0.1441,0.1442,0.1435,0.1431,0.1427,0.1419,0.1408,0.14,0.1389,0.1367,0.1365,0.1357,0.1354,0.1352,0.1349,0.1338,0.1334,0.1373,0.1373,0.1373,0,0,0.1474,0.147,0.1463,0.145,0.1445,0.1433,0.1445,0.1431,0.1422,0.1429,0.1412,0.1408,0.14,0.1379,0.137,0.1375,0.1338,0.135,0.1348,0.1347,0.1336,0.1332,0.1329,0.1372,0.1372,0.1372,0,0,0.1448,0.1444,0.1428,0.1424,0.1416,0.1415,0.1412,0.1405,0.1404,0.1387,0.1392,0.1381,0.1361,0.1355,0.1349,0.1322,0.1326,0.1319,0.1305,0.1293,0.129,0.1288,0.1278,0.1274,0.1317,0.1317,0.1317,0,0.1434,0.1417,0.142,0.1407,0.1401,0.1408,0.1393,0.1388,0.1377,0.1372,0.1379,0.1355,0.1349,0.1328,0.1322,0.1317,0.1313,0.1319,0.1291,0.1288,0.1285,0.1276,0.1272,0.1316,0.1316,0.1316,0.1316,0,0.1401,0.1389,0.1378,0.1368,0.1361,0.1347,0.1347,0.134,0.1343,0.1341,0.1324,0.1318,0.1307,0.1302,0.1304,0.1281,0.1285,0.1291,0.1301,0.1281,0.1272,0.1269,0.1315,0.1315,0.1315,0.1315,0,0,0.1363,0.1357,0.1353,0.1349,0.1342,0.1333,0.1319,0.1309,0.1303,0.1296,0.1284,0.1268,0.1274,0.1268,0.1269,0.1259,0.1239,0.1267,0.1267,0.1261,0.1214,0.1208,0.1204,0.1242,0.1241,0.124,0.1214,0,0.1336,0.1312,0.1315,0.1293,0.1282,0.129,0.1278,0.1273,0.1272,0.1262,0.1261,0.1249,0.1258,0.1255,0.1245,0.1243,0.1229,0.1245,0.123,0.123,0.1231,0.12,0.1194,0.1169,0.1211,0.121,0.121,0,0.13,0.1293,0.1269,0.1266,0.1261,0.1251,0.1242,0.1233,0.1227,0.1227,0.1221,0.1225,0.1211,0.1223,0.1204,0.1215,0.121,0.1208,0.1207,0.1205,0.1218,0.1196,0.1161,0.1157,0.1205,0.1205,0.1205,0,0.1274,0.1259,0.1243,0.124,0.1235,0.1227,0.1225,0.122,0.1214,0.1207,0.1203,0.1194,0.1188,0.1181,0.1182,0.1191,0.1163,0.1175,0.1162,0.1162,0.1155,0.1155,0.1118,0.1153,0.1153,0.1153,0.1153,0,0.1242,0.1228,0.1232,0.1222,0.1206,0.121,0.1194,0.1193,0.1189,0.1178,0.1185,0.1175,0.1178,0.1168,0.1169,0.1153,0.1151,0.115,0.115,0.1149,0.1149,0.1145,0.1146,0.1152,0.1152,0.1152,0.1152,0,0.121,0.1212,0.1196,0.1194,0.1193,0.1181,0.1179,0.117,0.117,0.1157,0.1154,0.1154,0.1144,0.1145,0.1132,0.1133,0.1114,0.1116,0.1116,0.1116,0.1103,0.1104,0.1061,0.1055,0.1094,0.1094,0.1094,0,0.1189,0.1179,0.1176,0.117,0.1167,0.1158,0.1152,0.1156,0.115,0.1144,0.1135,0.1126,0.1118,0.1101,0.1099,0.109,0.1092,0.1078,0.109,0.109,0.1091,0.1092,0.1091,0.1075,0.1074,0.1074,0.1074,0,0.1152,0.1154,0.1146,0.1139,0.1133,0.1127,0.1122,0.1117,0.112,0.1113,0.1103,0.1097,0.1085,0.1075,0.1067,0.1064,0.1069,0.107,0.1066,0.1064,0.1064,0.1064,0.1108,0.107,0.1071,0.1071,0.1071,0.1071,0.1124,0.1116,0.1112,0.1104,0.1101,0.1096,0.1088,0.1088,0.108,0.1071,0.1074,0.1062,0.1058,0.1048,0.1045,0.1035,0.104,0.1035,0.1034,0.1032,0.1031,0.1067,0.1034,0.1034,0.1034,0.1034,0.1034,0,0.1087,0.1086,0.1078,0.1072,0.1065,0.1072,0.1067,0.1061,0.1051,0.1047,0.104,0.1028,0.1019,0.1018,0.101,0.1003,0.1005,0.1,0.1,0.1,0.1027,0.1031,0.0999,0.0999,0.0999,0.0999,0.0999,0.0999,0.1067,0.1052,0.1054,0.1038,0.1037,0.1027,0.1023,0.1019,0.1017,0.1004,0.0997,0.0997,0.0994,0.0986,0.0978,0.0978,0.0974,0.0968,0.0969,0.0994,0.0998,0.1001,0.1004,0.0968,0.0968,0.0942,0.0942,0.0942]},{"header":{"parameterUnit":"m.s-1","parameterCategory":1,"la1":30.2991,"la2":30.254,"lo1":-89.0895,"lo2":-89.0444,"dy":0.0017,"dx":0.0017,"nx":28,"ny":28,"refTime":"2026-01-11T03:00:00:Z","depth":0,"parameterNumber":3,"parameterNumberName":"V-component_of_WINDS"},"data":[0,0,0,0,0,0,0,0,0,0,0,0,0,0,0,0,0,0,0,0,0,0,0,0,0,0,0,0,0,0,0,0,0,0,0,0,0,0,0,0,0,0,0,0,0,0,0,0,0,0,0,0,0,0,0,0,0,0,-8.7305,-8.7307,0,-8.7497,-8.7499,-8.7501,-8.7422,-8.7418,-8.7413,-8.7409,-8.7599,-8.7608,-8.7617,0,0,0,0,0,0,0,0,0,0,0,0,0,-8.6865,-8.6874,-8.7305,-8.7308,-8.731,-8.7497,-8.7499,-8.7502,-8.7423,-8.7418,-8.7412,-8.7407,-8.7596,-8.7607,-8.7618,0,0,0,0,0,0,0,0,0,0,0,0,0,-8.7057,-8.6877,-8.7305,-8.7293,-8.7294,-8.7496,-8.7499,-8.7503,-8.7424,-8.7417,-8.7411,-8.7404,-8.7592,-8.7606,-8.762,-8.7842,0,0,-8.7662,-8.7668,0,0,0,0,0,0,0,0,-8.7046,-8.7073,-8.7293,-8.7295,-8.7296,-8.7429,-8.7414,-8.7616,-8.7426,-8.7375,-8.7409,-8.7401,-8.7548,-8.7565,-8.7616,-8.7851,-8.7859,-8.7664,-8.7672,-8.7678,-8.7682,0,0,0,0,0,0,0,-8.7033,-8.7064,-8.7381,-8.7296,-8.7298,-8.7277,-8.7297,-8.7452,-8.7497,-8.7379,-8.7373,-8.7398,-8.7547,-8.7602,-8.7619,-8.7862,-8.7663,-8.7676,-8.7684,-8.769,-8.8291,-8.8298,0,0,0,0,0,0,-8.702,-8.7054,-8.7375,-8.7387,-8.7152,-8.729,-8.7312,-8.7393,-8.7495,-8.7504,-8.7403,-8.7393,-8.7582,-8.7603,-8.7626,-8.7894,-8.7678,-8.7691,-8.7699,-8.8283,-8.8292,-8.83,0,0,0,0,0,0,-8.7011,-8.7049,-8.7367,-8.7219,-8.7258,-8.7305,-8.7396,-8.74,-8.7456,-8.7514,-8.7521,-8.7452,-8.7577,-8.7606,-8.779,-8.7899,-8.7697,-8.771,-8.8274,-8.8286,-8.8296,-8.8432,0,0,0,0,0,0,-8.6999,-8.7047,-8.7133,-8.7222,-8.7266,-8.753,-8.7403,-8.7409,-8.7481,-8.7469,-8.7561,-8.757,-8.7574,-8.7769,-8.7804,-8.7915,-8.7721,-8.8264,-8.8279,-8.8293,-8.8418,-8.8447,-8.8471,0,0,0,0,0,-8.6983,-8.7162,-8.7138,-8.7177,-8.7375,-8.7536,-8.7562,-8.7565,-8.749,-8.7576,-8.7614,-8.7567,-8.7882,-8.7789,-8.7827,-8.7944,-8.8258,-8.8275,-8.8292,-8.8406,-8.8441,-8.847,0,0,0,0,0,0,-8.7083,-8.7173,-8.7148,-8.7361,-8.7442,-8.7523,-8.7632,-8.7602,-8.7704,-8.7689,-8.7687,-8.7708,-8.7898,-8.7939,-8.7834,-8.8165,-8.8058,-8.8083,-8.8132,-8.8166,-8.8192,-8.8178,-8.7732,0,0,0,0,0,-8.713,-8.7255,-8.7327,-8.7508,-8.755,-8.7585,-8.7655,-8.7651,-8.7733,-8.7767,-8.7817,-8.7898,-8.8015,-8.8092,-8.8203,-8.8423,-8.8442,-8.8522,-8.8549,-8.857,-8.8593,-8.8712,-8.8749,-8.8357,-8.8356,-8.8356,0,0,-8.7228,-8.7293,-8.7372,-8.7529,-8.7592,-8.772,-8.7614,-8.7753,-8.7848,-8.7787,-8.7965,-8.8005,-8.8094,-8.8298,-8.8389,-8.8337,-8.8705,-8.8592,-8.8609,-8.862,-8.8734,-8.8771,-8.8804,-8.8368,-8.8366,-8.8364,0,0,-8.7472,-8.7534,-8.7693,-8.7758,-8.7854,-8.7876,-8.7914,-8.8001,-8.8026,-8.8204,-8.8161,-8.8273,-8.8475,-8.8541,-8.8601,-8.8872,-8.8832,-8.8907,-8.9047,-8.9163,-8.9194,-8.9222,-8.9319,-8.9354,-8.8929,-8.893,-8.893,0,-8.7581,-8.7775,-8.7777,-8.7922,-8.7992,-8.7945,-8.8105,-8.8167,-8.8294,-8.8343,-8.8283,-8.8537,-8.8594,-8.8812,-8.8878,-8.8928,-8.8971,-8.8897,-8.919,-8.9218,-8.9243,-8.9336,-8.9372,-8.8938,-8.8937,-8.8936,-8.8935,0,-8.7905,-8.804,-8.8156,-8.8283,-8.8366,-8.8517,-8.8541,-8.8624,-8.8613,-8.8641,-8.8823,-8.889,-8.9014,-8.9065,-8.9054,-8.9282,-8.9247,-8.9189,-8.9082,-8.9289,-8.9376,-8.9412,-8.895,-8.8947,-8.8945,-8.8943,0,0,-8.8217,-8.8345,-8.8387,-8.8445,-8.8548,-8.8652,-8.88,-8.8924,-8.8996,-8.9085,-8.9209,-8.9382,-8.9329,-8.9398,-8.9394,-8.9496,-8.9707,-8.9425,-8.9427,-8.9476,-8.9963,-9.0007,-9.0048,-8.9682,-8.9688,-8.9694,-8.9956,0,-8.8471,-8.8734,-8.8741,-8.8981,-8.9106,-8.9063,-8.9192,-8.9269,-8.9299,-8.9407,-8.9439,-8.9562,-8.9483,-8.9524,-8.9623,-8.9661,-8.9805,-8.9642,-8.9796,-8.9802,-8.9776,-9.0094,-9.014,-9.0385,-8.999,-8.9996,-9.0,0,-8.8801,-8.8904,-8.9158,-8.9245,-8.9297,-8.9414,-8.9528,-8.9633,-8.9719,-8.9733,-8.981,-8.9791,-8.9941,-8.9829,-9.0036,-8.9924,-8.9988,-9.0015,-9.0025,-9.004,-8.9914,-9.0118,-9.0463,-9.05,-9.0053,-9.0049,-9.0045,0,-8.9005,-8.9206,-8.9385,-8.9435,-8.954,-8.9624,-8.9671,-8.975,-8.9824,-8.9923,-8.9971,-9.0086,-9.0149,-9.0237,-9.0249,-9.0166,-9.0457,-9.0345,-9.0472,-9.0472,-9.0536,-9.0532,-9.0896,-9.0576,-9.0575,-9.0574,-9.0573,0,-8.9288,-8.9445,-8.9478,-8.9588,-8.9763,-8.9768,-8.994,-8.998,-9.0051,-9.0167,-9.0135,-9.0244,-9.0253,-9.0364,-9.0374,-9.0544,-9.0572,-9.0587,-9.0588,-9.0591,-9.0589,-9.0633,-9.0616,-9.0584,-9.0582,-9.058,-9.0578,0,-8.9545,-8.9574,-8.9766,-8.9851,-8.9876,-9.0001,-9.0072,-9.0176,-9.0203,-9.035,-9.0385,-9.0426,-9.0556,-9.0577,-9.0728,-9.0735,-9.0939,-9.0921,-9.0911,-9.0909,-9.1035,-9.1024,-9.1441,-9.1497,-9.1139,-9.1142,-9.1145,0,-8.9724,-8.9845,-8.9943,-9.002,-9.0073,-9.0196,-9.0272,-9.0281,-9.0362,-9.0469,-9.056,-9.0687,-9.0789,-9.0998,-9.1041,-9.1157,-9.1142,-9.1281,-9.1159,-9.1159,-9.1145,-9.1139,-9.1151,-9.1304,-9.1308,-9.1311,-9.1314,0,-9.004,-9.0048,-9.0161,-9.028,-9.0372,-9.0465,-9.0553,-9.0616,-9.0636,-9.0728,-9.0862,-9.0942,-9.1098,-9.1224,-9.1339,-9.1385,-9.1354,-9.1352,-9.1388,-9.1392,-9.1382,-9.139,-9.0976,-9.1342,-9.1339,-9.1337,-9.1336,-9.1335,-9.0264,-9.037,-9.0456,-9.0583,-9.065,-9.0733,-9.0836,-9.0877,-9.0989,-9.1119,-9.1116,-9.1263,-9.1345,-9.1497,-9.1551,-9.1665,-9.162,-9.1671,-9.1685,-9.1698,-9.171,-9.1363,-9.1686,-9.1685,-9.1684,-9.1683,-9.1683,0,-9.0578,-9.0632,-9.0749,-9.0874,-9.0974,-9.0937,-9.1032,-9.1117,-9.1248,-9.1328,-9.143,-9.1584,-9.1707,-9.1759,-9.1879,-9.196,-9.1949,-9.1992,-9.1986,-9.1997,-9.1743,-9.1701,-9.1999,-9.1999,-9.1999,-9.1999,-9.1999,-9.1999,-9.0754,-9.0931,-9.095,-9.116,-9.1212,-9.1358,-9.1415,-9.1491,-9.1556,-9.173,-9.1833,-9.1867,-9.1936,-9.2061,-9.2171,-9.2184,-9.2229,-9.2279,-9.2285,-9.2047,-9.2015,-9.1984,-9.1945,-9.2289,-9.229,-9.253,-9.2532,-9.2534]}]]